Location: Lafig�re
(44.4503°N, 4.0357°E)
Time: 16:18:43
(UTC+00:00)

Cosmos 1844 Rocket - Pass Details

Date: 24 September 2020
Orbit: 823 x 846 km, 71.0° (Epoch: 25 October)

Event Time Altitude Azimuth Distance (km) Brightness Sun altitude
Rises 19:38:17 0° 231° (SW) 3,350 6.2 -22.0°
Reaches altitude 10° 19:40:54 10° 240° (WSW) 2,423 5.5 -22.4°
Maximum altitude 19:45:57 35° 305° (NW) 1,322 4.3 -23.3°
Drops below altitude 10° 19:51:03 10° 11° (N) 2,447 5.2 -24.1°
Sets 19:53:43 0° 20° (NNE) 3,388 5.9 -24.5°
